THOR AGENA D R/B, 1245

Orbit data source: Space-Track

THOR AGENA D R/B, 1245 is space debris in LEO originally from a launch on Tue, 09 Mar 1965 UTC launched from the Air Force Western Test Range (AFWTR). Debris objects in space refer to the collection of defunct objects orbiting the Earth. Examples of debris include non-operational satellites, rocket bodies, and fragments generated from explosions, collisions, or faulty payload assembly.

Loading next visibility...
Identifier
1245, 1965-016J
Orbit
LEO
Country
Flag of USUS
Related business
Manufacturer
LMSC
Mission
Spacecraft
Bus & Motor
AGENA D, Unknown motor
Mass
600 kg wet, 600 kg dry
Launch date (UTC)
1965-03-09 (61 years ago)
Launch vehicle
Unknown
Launch site
Air Force Western Test Range (AFWTR)
Object type
Payload
Rocket body
Debris
Shape & HBR
Unknown
Radar Cross Section
Large (>1 m²)

Expand to show TLE details & history
Last TLE update: 5 hours ago

TLE from 5 hours ago
0 THOR AGENA D R/B
1 01245U 65016J   26070.96281564  .00000066  00000-0  83642-4 0  9995
2 01245  70.0791 312.6543 0021558 184.3863 175.7058 13.97648945106710
Epoch: 2026-03-11T23:06Z
TLE epoch observation values (Epoch: 2026-03-11T23:06:27.271Z)
Latitude
-0.00008°
Longitude
156.42112°
Altitude
919.92 km
Speed
7.384 km/s
True Right ascension
20h 50m 37s
True Declination
0° 00' 00"
Sunlit
Object was in daylight at epoch
Visualization orbit readout
Latitude
Unknown
Longitude
Unknown
Altitude
Unknown
Speed
Unknown
Apparent Right ascension
Unknown
Apparent Declination
Unknown
Sunlit
N/A
Visualization observer readout
Local Sidereal Time
08:09:13
Azimuth
Unknown
Elevation
Unknown
Doppler factor
Unknown
Orbital elements
Apogee altitude
915.672 km
Perigee altitude
884.291 km
Semi-major axis
7,278.118 km
Eccentricity
0.00216
Inclination
70.0791°
RAAN
312.6543°
Arg. of periapsis
184.3863°
True anomaly
175.72425°
Mean anomaly
175.7058°
Eccentric anomaly
175.71503°
Mean motion
3.49554 °/min
Orbital period
102.99 mins
BSTAR
0.000083642
Loading maneuver chart data...
Computing Atmospheric mass density...
Loading historical data...
Loading historical data...
Loading historical data...
Loading historical data...
Loading historical data...
Loading historical data...
Loading historical data...

Documentation

Showing up to 5 results
|